Regional Weather Roundup
Issued by NWS

Home | Current Version | Previous Version | Text Only | Print | Product List | Glossary On
Versions: 1 2 3 4 5 6 7 8 9 10 11 12 13 14 15 16 17 18 19 20 21 22 23 24 25 26 27 28 29 30 31 32 33 34 35 36 37 38 39 40 41 42 43 44 45 46 47 48 49 50
576
ASUS45 KTFX 142310
RWRMT
MONTANA REGIONAL WEATHER ROUNDUP
NATIONAL WEATHER SERVICE GREAT FALLS MT
400 PM MST SUN FEB 14 2016

NOTE: "FAIR" INDICATES FEW OR NO CLOUDS BELOW 12000 FEET WITH NO
SIGNIFICANT WEATHER AND/OR OBSTRUCTIONS TO VISIBILITY.

MTZ001>007-043-150000-
WEST OF THE DIVIDE

CITY           SKY/WX    TMP DP  RH WIND       PRES   REMARKS
KALISPELL      CLOUDY    42  32  67 S3        29.99F
MISSOULA       CLOUDY    44  32  62 CALM      30.06F
BUTTE          PTSUNNY   40  24  53 NW16G25   30.00R
MULLAN PASS    SNOW      31  30  96 VRB7      30.02R VSB 1/4 WCI  24
ANACONDA         N/A     43  25  49 W21G30    29.98R
DEER LODGE       N/A     45  25  45 W10G22    30.01R
HAMILTON         N/A     46  30  53 SE8       30.05F
$$

MTZ008-052>055-150000-
SOUTHWEST MONTANA

CITY           SKY/WX    TMP DP  RH WIND       PRES   REMARKS
BOZEMAN        SUNNY     39  26  59 VRB5      29.97S
DILLON         MOSUNNY   45  26  47 W26G35    30.02R
ENNIS          CLOUDY    43  19  39 CALM      30.06S
$$

MTZ009-010-012-014-046-048-049-054-150000-
EAST SLOPES AND CENTRAL MONTANA

CITY           SKY/WX    TMP DP  RH WIND       PRES   REMARKS
CUT BANK       PTSUNNY   45  18  34 W31G38    29.82S
GREAT FALLS    CLOUDY    50  15  24 W24G32    29.87R
MALMSTROM AFB  CLOUDY    49  16  26 NW15G25   29.88R
HELENA         MOSUNNY   48  23  37 NW26G33   29.94S
CHOTEAU          N/A     46  18  31 W20G35    29.87S
$$

MTZ011-013-016-021-045-047-050-051-150000-
NORTH CENTRAL MONTANA

CITY           SKY/WX    TMP DP  RH WIND       PRES   REMARKS
HAVRE          MOSUNNY   50  19  29 NW14G23   29.79R
LEWISTOWN      SUNNY     46  19  34 NW22G31   29.83R
N BAR RANCH      N/A     43  18  36 NW21G30   29.84R
CHINOOK          N/A     52  19  28 W18G24    29.78S
$$

MTZ017>020-022>027-061-062-150000-
NORTHEAST MONTANA

CITY           SKY/WX    TMP DP  RH WIND       PRES   REMARKS
GLASGOW        SUNNY     45  30  55 NW12      29.74R
JORDAN           N/A     48  29  47 NW15      29.76R
SIDNEY         CLOUDY    43  30  61 W5        29.72R
WOLF POINT     PTSUNNY   45  32  60 W7        29.72R
PLENTYWOOD       N/A     37  28  70 W8        29.69R WCI  31
POPLAR           N/A     41  30  65 W7        29.73R
$$

MTZ028>42-056>058-150000-
SOUTHCENTRAL AND SOUTHEAST MONTANA

CITY           SKY/WX    TMP DP  RH WIND       PRES   REMARKS
BAKER          SUNNY     39  37  92 W7        29.76
BILLINGS       MOSUNNY   52  16  24 NW31G39   29.84R
LIVINGSTON     CLOUDY    48  19  31 W21G29    29.93R
MILES CITY     MOSUNNY   47  26  44 NW23      29.78R
FORSYTH          N/A     48  23  37 W16G28    29.81R
$$

REGIONAL REPORTS...DAKOTAS

CITY           SKY/WX    TMP DP  RH WIND       PRES   REMARKS
WILLISTON      SUNNY     39  30  70 W7        29.70R
MINOT          CLEAR     37  25  61 W9        29.68S WCI  30
DICKINSON      MOSUNNY   39  32  76 NW13      29.70R WCI  31
BEACH            N/A     39  36  87 W13       29.76R WCI  32
CROSBY           N/A     37  32  81 W9        29.70S WCI  31
TIOGA          MOCLDY    32  32 100 W13       29.73S WCI  22
BISMARCK       CLEAR     43  29  57 NW10      29.72S
GRAND FORKS    CLOUDY    21  15  78 S13       29.74S WCI   9
FARGO          CLOUDY    20  15  81 S14       29.77S WCI   7
BUFFALO SD       N/A     38  33  82 W14       29.70R WCI  30
RAPID CITY     CLOUDY    41  34  76 N12       29.78S
$$

REGIONAL REPORTS...WYOMING/IDAHO/WASHINGTON

CITY           SKY/WX    TMP DP  RH WIND       PRES   REMARKS
GILLETTE       CLOUDY    34  32  92 W13       29.83F WCI  25
SHERIDAN       PTSUNNY   40  30  67 W8        29.85S
BUFFALO WY     CLOUDY    37  29  72 NW10      29.86R WCI  30
CODY           MOSUNNY   46  18  31 W9        29.90R
YELLOWSTONE LA   N/A     30  19  63 VRB6G20   30.04R WCI  24
IDAHO FALLS    CLOUDY    34  31  88 S14       30.15R WCI  25
SALMON         CLOUDY    37  28  70 CALM      30.10R
BOISE          CLOUDY    46  43  89 CALM      30.24R
SPOKANE        CLOUDY    46  42  86 SW9       30.07F
$$

REGIONAL REPORTS...ALBERTA

CITY           SKY/WX    TMP DP  RH WIND       PRES   REMARKS
EDMONTON       SUNNY     39  27  60 W5        29.68F
CALGARY        PTSUNNY   45  12  26 W14G29    29.71S
LETHBRIDGE     PTSUNNY   46  19  34 W26G37    29.78S
MEDICINE HAT   PTSUNNY   52  19  28 W16       29.74S
WATERTON GATE    N/A     41  18  38 SW21G31     N/A
MILK RIVER       N/A     45  18  33 W25G32      N/A
$$

REGIONAL REPORTS...SASKATCHEWAN

CITY           SKY/WX    TMP DP  RH WIND       PRES   REMARKS
SWIFT CURRENT  MOSUNNY   36  30  80 W13       29.69R WCI  27
REGINA         PTCLDY    39  30  70 W12       29.66R WCI  32
SASKATOON      MOCLDY    34  27  75 SW12      29.66R WCI  25
CYPRESS HILLS    N/A     41  14  33 NW12G20     N/A
VAL MARIE        N/A     45  25  45 NW18G25     N/A
ROCKGLEN         N/A     37  27  65 NW14G21     N/A  WCI  29
ASSINIBOIA       N/A     37  30  75 W9          N/A  WCI  31
$$




USA.gov is the U.S. government's official web portal to all federal, state and local government web resources and services.